Home   Weather   Southampton   Past weeks
Flag for United Kingdom

Past Weather in Southampton, England, United Kingdom — Yesterday and Last 2 Weeks

Now
50 °F

Scattered showers. Scattered clouds.


Feels Like: 46 °F
Forecast: 47 / 41 °F
Wind: 10 mph from Southwest

Location: Southampton / Weather Centre

Current Time: Dec 15, 2019 at 1:33:57 pm

Latest Report: Dec 15, 2019 at 12:50 pm


Visibility: N/A

Pressure: 29.47 "Hg

Humidity: 67%

Dew Point: 39 °F

Location of SouthamptonLocation

Past Weather in Southampton — Graph

°F

Southampton Temperature Yesterday

Maximum temperature yesterday: 52 °F (at 7:50 pm)
Minimum temperature yesterday: 43 °F (at 6:20 am)
Average temperature yesterday: 47 °F

High & Low Weather Summary for the Past Weeks

 TemperatureHumidityPressure
High55 °F (Dec 6, 9:20 am)100% (Dec 3, 5:50 am)30.51 "Hg (Dec 3, 5:50 am)
Low28 °F (Dec 2, 6:50 am)50% (Dec 14, 2:20 pm)28.80 "Hg (Dec 12, 9:50 pm)
Average45 °F79%29.82 "Hg
* Reported Nov 30 12:20 pm — Dec 15 12:20 pm, Southampton. Weather by CustomWeather, © 2019

Note: Actual official high and low records may vary slightly from our data, if they occured in-between our weather recording intervals... More about our weather records

Southampton Weather History for the Previous 24 Hours

Scroll right to see more
 ConditionsComfort  
Time TempWeatherWind HumidityBarometerVisibility
12:20 pm
Sun, Dec 15
50 °FScattered showers. Scattered clouds.10 mph67%29.47 "HgN/A
11:50 am50 °FPassing clouds.12 mph67%29.47 "HgN/A
11:20 am48 °FPassing clouds.8 mph71%29.47 "HgN/A
10:50 am48 °FPassing clouds.3 mph71%29.45 "HgN/A
10:20 am46 °FPassing clouds.5 mph76%29.45 "HgN/A
9:50 am46 °FScattered showers. Scattered clouds.3 mph76%29.45 "HgN/A
9:20 am46 °FScattered showers. Passing clouds.8 mph76%29.42 "HgN/A
8:50 am46 °FScattered showers. Passing clouds.12 mph76%29.42 "HgN/A
8:20 am46 °FScattered showers. Passing clouds.14 mph71%29.39 "HgN/A
7:50 am46 °FPassing clouds.12 mph71%29.39 "HgN/A
7:20 am45 °FPassing clouds.12 mph76%29.36 "HgN/A
6:50 am45 °FScattered showers. Passing clouds.12 mph76%29.36 "Hg4 mi
9:20 pm
Sat, Dec 14
50 °FRain showers. Passing clouds.14 mph88%29.21 "Hg4 mi
8:50 pm50 °FRain showers. Passing clouds.21 mph82%29.24 "Hg4 mi
8:20 pm52 °FSprinkles. Passing clouds.17 mph72%29.24 "Hg5 mi
7:50 pm52 °FSprinkles. Passing clouds.15 mph67%29.27 "Hg5 mi
7:20 pm50 °FSprinkles. Passing clouds.16 mph71%29.30 "Hg5 mi
6:50 pm50 °FPassing clouds.12 mph67%29.33 "Hg5 mi
6:20 pm48 °FPassing clouds.14 mph71%29.33 "HgN/A
5:50 pm46 °FPassing clouds.8 mph66%29.36 "HgN/A
5:20 pm46 °FPassing clouds.6 mph62%29.36 "HgN/A
4:50 pm45 °FClear.6 mph61%29.39 "Hg10 mi
4:20 pm45 °FPassing clouds.6 mph61%29.39 "HgN/A
3:50 pm46 °FPassing clouds.8 mph57%29.42 "HgN/A
3:20 pm46 °FPassing clouds.9 mph57%29.39 "HgN/A
2:50 pm48 °FPassing clouds.10 mph54%29.39 "HgN/A
2:20 pm48 °FPassing clouds.12 mph50%29.39 "HgN/A
1:50 pm48 °FPassing clouds.12 mph54%29.39 "HgN/A
1:20 pm48 °FPassing clouds.12 mph58%29.39 "HgN/A
Weather by CustomWeather, © 2019

See weather overview

Advertising